ATLAS 5 CENTAUR DEB, 43990

Orbit data source: Space-Track

ATLAS 5 CENTAUR DEB, 43990 is space debris in HEO originally from a launch on Wed, 17 Sep 2014 UTC launched from the Air Force Eastern Test Range (AFETR). Debris objects in space refer to the collection of defunct objects orbiting the Earth. Examples of debris include non-operational satellites, rocket bodies, and fragments generated from explosions, collisions, or faulty payload assembly.

Loading next visibility...
Identifier
43990, 2014-055AV
Orbit
HEO
Country
Flag of USUS
Related business
Flag of USUnited Launch Alliance/Lockheed Martin (US)
Manufacturer
Unknown
Mission
Spacecraft
Bus & Motor
Unknown
Mass
Unknown
Launch date (UTC)
2014-09-17 (11 years ago)
Launch vehicle
Unknown
Launch site
Air Force Eastern Test Range (AFETR)
Object type
Payload
Rocket body
Debris
Shape & HBR
Unknown shape, 1.1 m
Radar Cross Section
Small (<0.1 m²)

Expand to show TLE details & history
Last TLE update: 19 hours ago

TLE from 19 hours ago
0 ATLAS 5 CENTAUR DEB
1 43990U 14055AV  26073.49556513 -.00000072  00000-0  00000-0 0  9996
2 43990  20.2561 143.4335 4768861 166.4851 212.9517  1.88650710 51332
Epoch: 2026-03-14T11:53Z
TLE epoch observation values (Epoch: 2026-03-14T11:53:36.827Z)
Latitude
0.00002°
Longitude
152.92579°
Altitude
33,489.733 km
Speed
2.364 km/s
True Right ascension
09h 33m 46s
True Declination
0° 00' 00"
Sunlit
Object was in daylight at epoch
Visualization orbit readout
Latitude
Unknown
Longitude
Unknown
Altitude
Unknown
Speed
Unknown
Apparent Right ascension
Unknown
Apparent Declination
Unknown
Sunlit
N/A
Visualization observer readout
Local Sidereal Time
10:58:26
Azimuth
Unknown
Elevation
Unknown
Doppler factor
Unknown
Orbital elements
Apogee altitude
34,485.812 km
Perigee altitude
8,095.897 km
Semi-major axis
27,668.991 km
Eccentricity
0.47689
Inclination
20.2561°
RAAN
143.4335°
Arg. of periapsis
166.4851°
True anomaly
193.50082°
Mean anomaly
212.9517°
Eccentric anomaly
202.49682°
Mean motion
0.47158 °/min
Orbital period
763.4 mins
BSTAR
0
Loading maneuver chart data...
Computing Atmospheric mass density...

Documentation

Showing up to 5 results
|